Lansing, MI

3:36 PM EST on November 24, 2017 (GMT -0500)
Capital City

Weather History for KLAN - June, 2013

Change the Weather History Date:

Wednesday, June 5, 2013

  Actual Average Record
Temperature  
Mean Temperature 61 °F 64 °F  
Max Temperature 70 °F 75 °F 96 °F (1925)
Min Temperature 51 °F 54 °F 27 °F (1869)
Degree Days  
Heating Degree Days 4 3  
Month to date heating degree days 27 19  
Since 1 June heating degree days 27 19  
Since 1 July heating degree days 6541 6676  
Cooling Degree Days 0 3  
Month to date cooling degree days 7 13  
Year to date cooling degree days 80 54  
Since 1 June cooling degree days 7 13  
Growing Degree Days 10 (Base 50)    
Moisture  
Dew Point 40 °F    
Average Humidity 55    
Maximum Humidity 80    
Minimum Humidity 29    
Precipitation  
Precipitation 0.01 in 0.12 in 2.59 in (1986)
Month to date precipitation 0.17 0.58  
Year to date precipitation 18.17 12.15  
Snow  
Snow 0.00 in 0.00 in 0.00 in ()
Month to date snowfall 0.0 0.0  
Since 1 June snowfall 0.0 0.0  
Since 1 July snowfall 30.2 51.1  
Snow Depth 0.00 in    
Sea Level Pressure  
Sea Level Pressure 30.12 in    
Wind  
Wind Speed 7 mph (ENE)    
Max Wind Speed 13 mph    
Max Gust Speed 17 mph    
Visibility 10 miles    
Events Rain    
T = Trace of Precipitation, MM = Missing Value Source: NWS Daily Summary

Daily Weather History Graph

Daily Weather History Graph

Search for Another Location

Airport or City:

Trip Planner

Search our weather history database for the weather conditions in past years. The results will help you decide how hot, cold, wet, or windy it might be!

Date:

Astronomy

Jun. 05, 2013 Rise Set
Actual Time 6:00 AM EDT 9:13 PM EDT
Civil Twilight 5:26 AM EDT 9:47 PM EDT
Nautical Twilight 4:41 AM EDT 10:32 PM EDT
Astronomical Twilight 3:48 AM EDT 11:26 PM EDT
Moon 4:08 AM EDT (6/5) 6:36 PM EDT (6/5)
Length of Visible Light 16h 21m
Length of Day
15h 12m
Waning Crescent, 8% of the Moon is Illuminated
Jun 5
Waning Crescent
Jun 8
New
Jun 16
First Quarter
Jun 23
Full
Jun 30
Last Quarter

Hourly Weather History & Observations

Time (EDT) Temp. Dew Point Humidity Pressure Visibility Wind Dir Wind Speed Gust Speed Precip Events Conditions
12:53 AM 60.1 °F 39.0 °F 46% 30.17 in 10.0 mi SE 6.9 mph - N/A   Clear
1:53 AM 59.0 °F 32.0 °F 36% 30.17 in 10.0 mi SE 6.9 mph - N/A   Clear
2:53 AM 57.0 °F 33.1 °F 40% 30.18 in 10.0 mi SE 6.9 mph - N/A   Clear
3:53 AM 57.0 °F 30.9 °F 37% 30.16 in 10.0 mi SE 8.1 mph - N/A   Partly Cloudy
4:53 AM 55.9 °F 30.9 °F 39% 30.17 in 10.0 mi East 3.5 mph - N/A   Partly Cloudy
5:53 AM 52.0 °F 37.0 °F 57% 30.17 in 10.0 mi East 3.5 mph - N/A   Scattered Clouds
6:53 AM 52.0 °F 39.0 °F 61% 30.17 in 10.0 mi East 4.6 mph - N/A   Scattered Clouds
7:53 AM 54.0 °F 37.9 °F 55% 30.19 in 10.0 mi ENE 4.6 mph - N/A   Scattered Clouds
8:53 AM 55.0 °F 39.0 °F 55% 30.20 in 10.0 mi ENE 5.8 mph - N/A   Mostly Cloudy
9:53 AM 57.0 °F 37.9 °F 49% 30.18 in 10.0 mi East 9.2 mph - N/A   Mostly Cloudy
10:53 AM 62.1 °F 39.0 °F 43% 30.14 in 10.0 mi Variable 5.8 mph - N/A   Scattered Clouds
11:53 AM 64.0 °F 37.9 °F 38% 30.14 in 10.0 mi ENE 8.1 mph - N/A   Partly Cloudy
12:53 PM 64.9 °F 39.0 °F 39% 30.11 in 10.0 mi ENE 6.9 mph - N/A   Clear
1:53 PM 68.0 °F 37.0 °F 32% 30.10 in 10.0 mi ENE 8.1 mph - N/A   Clear
2:53 PM 66.9 °F 33.1 °F 28% 30.09 in 10.0 mi East 3.5 mph - N/A   Mostly Cloudy
3:53 PM 69.1 °F 37.0 °F 31% 30.09 in 10.0 mi ENE 6.9 mph - N/A   Mostly Cloudy
4:53 PM 68.0 °F 39.9 °F 36% 30.06 in 10.0 mi NE 8.1 mph - N/A   Mostly Cloudy
5:53 PM 66.9 °F 42.1 °F 40% 30.04 in 10.0 mi NE 9.2 mph - N/A   Overcast
6:53 PM 64.9 °F 44.1 °F 47% 30.04 in 10.0 mi NE 5.8 mph - N/A   Overcast
7:53 PM 64.0 °F 45.0 °F 50% 30.03 in 10.0 mi NE 6.9 mph - N/A   Overcast
8:53 PM 60.1 °F 50.0 °F 69% 30.04 in 10.0 mi NE 5.8 mph - 0.00 in Rain Light Rain
9:53 PM 59.0 °F 51.1 °F 75% 30.03 in 10.0 mi ENE 8.1 mph - 0.00 in   Overcast
10:53 PM 59.0 °F 51.1 °F 75% 30.03 in 10.0 mi NE 10.4 mph - 0.00 in Rain Light Rain
11:53 PM 57.0 °F 52.0 °F 83% 30.04 in 10.0 mi NE 9.2 mph - 0.00 in Rain Light Rain